Simultaneous Nadir Overpasses (SNOs) Predictions

Prediction of SNOs between METOP-B and TERRA Satellite Orbit:

Table of predicted SNOs for the next 14.0 days since TLE Epoch: 4/24/2021
Index Date (METOP-B) Time (METOP-B) Lat,Lon (METOP-B) SZA (METOP-B ) Date (TERRA) Time (TERRA) Lat,Lon (TERRA) SZA (TERRA ) Distance(km) Time Diff (sec)
1 04/24/2021 07:02:55 -81.25, -60.57 109.02 04/24/2021 07:03:54 -81.26, -60.48 108.99 1.52 59
2 04/24/2021 07:53:35 81.26, 107.24 71.03 04/24/2021 07:53:20 81.26, 107.29 71.03 0.82 15
3 04/27/2021 02:37:19 -81.26, 5.95 109.90 04/27/2021 02:38:06 -81.26, 5.99 109.87 0.64 47
4 04/27/2021 03:27:59 81.27, 173.73 70.15 04/27/2021 03:27:32 81.26, 173.73 70.14 0.17 27
5 04/29/2021 22:11:44 -81.26, 72.45 110.75 04/29/2021 22:12:19 -81.26, 72.41 110.74 0.78 35
6 04/29/2021 23:02:24 81.27,-119.80 69.30 04/29/2021 23:01:45 81.26,-119.88 69.27 1.42 39
7 05/02/2021 17:46:09 -81.26, 138.94 111.57 05/02/2021 17:46:32 -81.25, 138.79 111.58 2.74 23
8 05/02/2021 18:36:49 81.27, -53.35 68.47 05/02/2021 18:35:58 81.26, -53.53 68.42 3.27 51
9 05/05/2021 13:20:33 -81.26,-154.59 112.36 05/05/2021 13:20:43 -81.27,-154.51 112.34 1.54 10



Historial Predications of SNOs between METOP-B and TERRA
